Location: Aletheia Temple Church
(32.7174°N, 97.2485°W)
Time: 00:45:51
(UTC+00:00)

Hubble Space Telescope - Visible Passes

Search period start: 13 October 2024 00:00
Search period end: 23 October 2024 00:00
Orbit: 503 x 507 km, 28.5° (Epoch: 12 October)

Date Brightness Start Highest point End Pass type
(mag) Time Alt. Az. Time Alt. Az. Time Alt. Az.
14 Oct 3.0 01:33:13 10° SSW 01:34:17 13° S 01:34:17 13° S visible
15 Oct 2.6 01:11:24 10° SSW 01:13:52 16° SSE 01:14:10 16° SSE visible
16 Oct 2.6 00:49:36 10° SSW 00:52:16 17° SSE 00:53:58 14° SE visible
16 Oct 3.8 02:28:37 10° WSW 02:28:37 10° WSW 02:28:37 10° WSW visible
17 Oct 2.5 00:27:49 10° SSW 00:30:38 19° SSE 00:33:28 10° ESE visible
17 Oct 3.0 02:06:59 10° WSW 02:08:19 19° SW 02:08:19 19° SW visible
18 Oct 2.0 01:45:19 10° WSW 01:47:58 33° SSW 01:47:58 33° SSW visible
19 Oct 1.3 01:23:39 10° WSW 01:27:22 42° S 01:27:33 41° SSE visible
20 Oct 1.3 01:01:56 10° WSW 01:05:40 43° S 01:07:05 30° SE visible
21 Oct 1.4 00:40:12 10° WSW 00:43:57 43° S 00:46:35 18° ESE visible
21 Oct 3.6 02:20:28 10° WSW 02:21:13 15° WSW 02:21:13 15° WSW visible
22 Oct 1.4 00:18:27 10° WSW 00:22:12 44° S 00:25:57 10° ESE visible
22 Oct 2.7 01:58:45 10° WSW 02:00:42 24° WSW 02:00:42 24° WSW visible
